This is the latest recevied weather packets stored in our database for station/object W9KHP-1. If no packets are shown the sender has not sent any weather packets the latest 10 day(s).
| Time | Temp. | Humidity | Pressure | Rain* | Wind** | Luminosity | Snow |
|---|---|---|---|---|---|---|---|
| 1788137858 | 80° F | 74% | 764.2 mmHg | 0 in | - | 0 W/m² | - |
| 1788137553 | 80° F | 73% | 764.2 mmHg | 0 in | - | 0 W/m² | - |
| 1788137249 | 81° F | 73% | 764.2 mmHg | 0 in | - | 0 W/m² | - |
| 1788136946 | 81° F | 72% | 764.3 mmHg | 0 in | - | 0 W/m² | - |
| 1788136640 | 81° F | 72% | 764.1 mmHg | 0 in | - | 0 W/m² | - |
| 1788136336 | 82° F | 71% | 764.2 mmHg | 0 in | - | 1 W/m² | - |
| 1788136035 | 82° F | 71% | 764.2 mmHg | 0 in | - | 1 W/m² | - |
| 1788135730 | 83° F | 70% | 764.2 mmHg | 0 in | - | 2 W/m² | - |
| 1788135427 | 83° F | 69% | 764.3 mmHg | 0 in | - | 3 W/m² | - |
| 1788135126 | 83° F | 68% | 764.1 mmHg | 0 in | - | 5 W/m² | - |
| 1788134823 | 83° F | 71% | 764.1 mmHg | 0 in | - | 8 W/m² | - |
| 1788134518 | 83° F | 71% | 764.2 mmHg | 0 in | - | 9 W/m² | - |
| 1788134217 | 84° F | 72% | 764 mmHg | 0 in | - | 12 W/m² | - |
| 1788133912 | 85° F | 67% | 764.2 mmHg | 0 in | - | 14 W/m² | - |
| 1788133606 | 85° F | 65% | 764.2 mmHg | 0 in | - | 16 W/m² | - |
| 1788133302 | 85° F | 66% | 764.2 mmHg | 0 in | - | 18 W/m² | - |
| 1788132997 | 86° F | 65% | 764.2 mmHg | 0 in | - | 20 W/m² | - |
| 1788132693 | 86° F | 64% | 764.2 mmHg | 0 in | - | 19 W/m² | - |
| 1788132389 | 86° F | 62% | 764.2 mmHg | 0 in | - | 19 W/m² | - |
| 1788132079 | 87° F | 61% | 764.2 mmHg | 0 in | - | 20 W/m² | - |
| 1788131775 | 87° F | 60% | 764 mmHg | 0 in | - | 22 W/m² | - |
| 1788131473 | 88° F | 60% | 764 mmHg | 0 in | - | 25 W/m² | - |
| 1788131169 | 88° F | 58% | 763.9 mmHg | 0 in | - | 30 W/m² | - |
| 1788130864 | 88° F | 59% | 763.9 mmHg | 0 in | - | 34 W/m² | - |
| 1788130559 | 88° F | 60% | 764 mmHg | 0 in | - | 37 W/m² | - |
* Rain latest hour (hover to see other rain measurements)
** Current wind speed in m/s (hover to see current wind gust speed)